Weather History for MMML - November, 2012

Change the Weather History Date:

Tuesday, November 6, 2012

  Actual Average Record
Temperature  
Mean Temperature 75 °F -  
Max Temperature 93 °F 74 °F 95 °F (2008)
Min Temperature 57 °F 47 °F 46 °F (2011)
Cooling Degree Days 10    
Growing Degree Days 25 (Base 50)    
Moisture  
Dew Point 30 °F    
Average Humidity 20    
Maximum Humidity 39    
Minimum Humidity 10    
Precipitation  
Precipitation 0.00 in - - ()
Sea Level Pressure  
Sea Level Pressure 29.98 in    
Wind  
Wind Speed 1 mph ()    
Max Wind Speed 6 mph    
Max Gust Speed -    
Visibility 10.0 miles    
Events      
Averages and records for this station are not official NWS values.
T = Trace of Precipitation, MM = Missing Value Source: Averaged Metar Reports

Daily Weather History Graph

Daily Weather History Graph

Search for Another Location

Airport or City:

Trip Planner

Search our weather history database for the weather conditions in past years. The results will help you decide how hot, cold, wet, or windy it might be!

Date:

Astronomy

Nov. 06, 2012 Rise Set
Actual Time 6:03 AM PST 4:45 PM PST
Civil Twilight 5:37 AM PST 5:11 PM PST
Nautical Twilight 5:08 AM PST 5:40 PM PST
Astronomical Twilight 4:39 AM PST 6:09 PM PST
Moon 11:24 PM PST (11/6) 12:00 PM PST (11/6)
Length of Visible Light 11h 33m
Length of Day
10h 42m
Waning Gibbous, 52% of the Moon is Illuminated
Nov 6
Waning Gibbous
Nov 6
Last Quarter
Nov 13
New
Nov 20
First Quarter
Nov 28
Full

Hourly Weather History & Observations

Time (PST) Temp. Dew Point Humidity Pressure Visibility Wind Dir Wind Speed Gust Speed Precip Events Conditions
12:43 AM 68.0 °F 30.2 °F 24% 29.99 in 10.0 mi WNW 5.8 mph - N/A   Clear
4:57 AM 59.0 °F 33.8 °F 39% 30.00 in 10.0 mi Calm Calm - N/A   Clear
5:47 AM 57.2 °F 32.0 °F 38% 30.01 in 10.0 mi Calm Calm - N/A   Clear
6:56 AM 68.0 °F 32.0 °F 26% 30.00 in 10.0 mi Calm Calm - N/A   Clear
7:43 AM 69.8 °F 30.2 °F 23% 30.04 in 10.0 mi Calm Calm - N/A   Clear
8:42 AM 78.8 °F 28.4 °F 16% 30.04 in 10.0 mi Calm Calm - N/A   Clear
9:51 AM 84.2 °F 28.4 °F 13% 30.06 in 10.0 mi Calm Calm - N/A   Clear
10:46 AM 87.8 °F 26.6 °F 11% 30.02 in 10.0 mi Calm Calm - N/A   Clear
11:53 AM 89.6 °F 28.4 °F 11% 29.99 in 10.0 mi Calm Calm - N/A   Clear
12:52 PM 91.4 °F 28.4 °F 10% 29.98 in 10.0 mi North 5.8 mph - N/A   Clear
1:52 PM 91.4 °F 28.4 °F 10% 29.94 in 10.0 mi North 5.8 mph - N/A   Clear
2:51 PM 93.2 °F 28.4 °F 10% 29.93 in 10.0 mi WNW 5.8 mph - N/A   Clear
3:49 PM 91.4 °F 30.2 °F 11% 30.04 in 10.0 mi Calm Calm - N/A   Clear
4:49 PM 86.0 °F 30.2 °F 13% 29.92 in 10.0 mi Calm Calm - N/A   Clear
5:46 PM 80.6 °F 30.2 °F 16% 29.93 in 10.0 mi Calm Calm - N/A   Clear
6:43 PM 78.8 °F 33.8 °F 20% 29.95 in 10.0 mi Calm Calm - N/A   Clear
7:47 PM 75.2 °F 32.0 °F 21% 29.94 in 10.0 mi Calm Calm - N/A   Clear
8:54 PM 73.4 °F 30.2 °F 20% 29.96 in 10.0 mi Calm Calm - N/A   Clear
9:52 PM 69.8 °F 33.8 °F 27% 29.97 in 10.0 mi Calm Calm - N/A   Clear
10:59 PM 66.2 °F 30.2 °F 26% 29.95 in 10.0 mi Calm Calm - N/A   Clear
11:57 PM 62.6 °F 32.0 °F 32% 29.96 in 10.0 mi Calm Calm - N/A   Clear